When you browse on this site, cookies collect data to enhance your experience and personalize the content and advertising you see.
Visit our Privacy Policy to learn more. By continuing to use the site, you agree to this use of cookies and data.
  • în România
  • Lista ţărilor
  • Pe 7 zile
  • Temperatura apei
  • Meteo pe hartă
  • Widget-uri
  • user-avatar
    Intrare

    Meteo pe oră la Sceaux

    Astăzi, 21 August, Miercuri

    Timp Temperatura Precipitaţii Vânt Presiune Umiditate
    00:00 +16°C° 0 mm 2 m/s 761 mmHg 67%
    01:00 +15°C° 0 mm 2 m/s 761 mmHg 68%
    02:00 +15°C° 0 mm 2 m/s 761 mmHg 69%
    03:00 +14°C° 0 mm 2 m/s 760 mmHg 70%
    04:00 +14°C° 0 mm 1 m/s 761 mmHg 69%
    05:00 +14°C° 0 mm 1 m/s 761 mmHg 69%
    06:00 +15°C° 0 mm 1 m/s 761 mmHg 69%
    07:00 +16°C° 0 mm 1 m/s 761 mmHg 62%
    08:00 +19°C° 0 mm 1 m/s 761 mmHg 55%
    09:00 +20°C° 0 mm 2 m/s 761 mmHg 49%
    10:00 +21°C° 0 mm 2 m/s 761 mmHg 45%
    11:00 +23°C° 0 mm 2 m/s 761 mmHg 42%
    12:00 +25°C° 0 mm 2 m/s 760 mmHg 39%
    13:00 +25°C° 0 mm 2 m/s 760 mmHg 37%
    14:00 +25°C° 0 mm 2 m/s 760 mmHg 35%
    15:00 +26°C° 0 mm 2 m/s 759 mmHg 34%
    16:00 +25°C° 0 mm 2 m/s 759 mmHg 37%
    17:00 +24°C° 0 mm 2 m/s 759 mmHg 40%
    18:00 +23°C° 0 mm 2 m/s 759 mmHg 43%
    19:00 +21°C° 0 mm 2 m/s 759 mmHg 45%
    20:00 +20°C° 0 mm 2 m/s 759 mmHg 48%
    21:00 +19°C° 0 mm 2 m/s 759 mmHg 50%
    22:00 +18°C° 0 mm 2 m/s 759 mmHg 51%
    23:00 +19°C° 0 mm 1 m/s 759 mmHg 51%

    Mâine, 22 August, Joi

    Timp Temperatura Precipitaţii Vânt Presiune Umiditate
    00:00 +18°C° 0 mm 1 m/s 759 mmHg 52%
    01:00 +18°C° 0 mm 1 m/s 759 mmHg 53%
    02:00 +16°C° 0 mm 1 m/s 759 mmHg 53%
    03:00 +16°C° 0 mm 1 m/s 759 mmHg 54%
    04:00 +16°C° 0 mm 1 m/s 759 mmHg 54%
    05:00 +16°C° 0 mm 1 m/s 759 mmHg 54%
    06:00 +16°C° 0 mm 1 m/s 759 mmHg 55%
    07:00 +19°C° 0 mm 1 m/s 759 mmHg 49%
    08:00 +21°C° 0 mm 1 m/s 760 mmHg 44%
    09:00 +23°C° 0 mm 2 m/s 760 mmHg 38%
    10:00 +24°C° 0 mm 2 m/s 760 mmHg 36%
    11:00 +25°C° 0 mm 2 m/s 759 mmHg 34%
    12:00 +27°C° 0 mm 2 m/s 759 mmHg 31%
    13:00 +27°C° 0 mm 2 m/s 759 mmHg 30%
    14:00 +28°C° 0 mm 2 m/s 759 mmHg 29%
    15:00 +28°C° 0 mm 2 m/s 758 mmHg 28%
    16:00 +27°C° 0 mm 2 m/s 758 mmHg 32%
    17:00 +26°C° 0 mm 2 m/s 758 mmHg 36%
    18:00 +25°C° 0 mm 3 m/s 758 mmHg 40%
    19:00 +24°C° 0 mm 3 m/s 759 mmHg 43%
    20:00 +21°C° 0 mm 2 m/s 759 mmHg 47%
    21:00 +20°C° 0 mm 2 m/s 759 mmHg 51%
    22:00 +19°C° 0 mm 2 m/s 759 mmHg 54%
    23:00 +19°C° 0 mm 2 m/s 759 mmHg 57%

    Poimâine, 23 August, Vineri

    Timp Temperatura Precipitaţii Vânt Presiune Umiditate
    00:00 +18°C° 0 mm 2 m/s 759 mmHg 60%
    01:00 +17°C° 0 mm 2 m/s 759 mmHg 62%
    02:00 +17°C° 0 mm 2 m/s 758 mmHg 63%
    03:00 +16°C° 0 mm 2 m/s 758 mmHg 65%
    04:00 +16°C° 0 mm 2 m/s 758 mmHg 65%
    05:00 +16°C° 0 mm 2 m/s 758 mmHg 65%
    06:00 +16°C° 0 mm 2 m/s 758 mmHg 64%
    07:00 +18°C° 0 mm 2 m/s 758 mmHg 59%
    08:00 +20°C° 0 mm 2 m/s 758 mmHg 53%
    09:00 +22°C° 0 mm 3 m/s 758 mmHg 48%
    10:00 +25°C° 0 mm 3 m/s 758 mmHg 45%
    11:00 +26°C° 0 mm 3 m/s 758 mmHg 42%
    12:00 +28°C° 0 mm 3 m/s 757 mmHg 39%
    13:00 +28°C° 0 mm 3 m/s 757 mmHg 37%
    14:00 +29°C° 0 mm 3 m/s 757 mmHg 35%
    15:00 +29°C° 0 mm 3 m/s 756 mmHg 33%
    16:00 +28°C° 0 mm 3 m/s 756 mmHg 37%
    17:00 +28°C° 0 mm 3 m/s 756 mmHg 41%
    18:00 +27°C° 0 mm 3 m/s 756 mmHg 44%
    19:00 +25°C° 0 mm 3 m/s 756 mmHg 48%
    20:00 +24°C° 0 mm 3 m/s 756 mmHg 52%
    21:00 +23°C° 0 mm 2 m/s 756 mmHg 55%
    22:00 +21°C° 0 mm 2 m/s 756 mmHg 59%
    23:00 +20°C° 0 mm 2 m/s 755 mmHg 62%

    24 August, Sâmbătă

    Timp Temperatura Precipitaţii Vânt Presiune Umiditate
    00:00 +20°C° 0 mm 2 m/s 755 mmHg 66%
    01:00 +19°C° 0 mm 2 m/s 755 mmHg 68%
    02:00 +19°C° 0 mm 2 m/s 755 mmHg 70%
    03:00 +18°C° 0 mm 2 m/s 754 mmHg 72%
    04:00 +19°C° 0 mm 1 m/s 754 mmHg 72%
    05:00 +19°C° 0 mm 1 m/s 754 mmHg 73%
    06:00 +19°C° 0 mm 1 m/s 754 mmHg 73%
    07:00 +20°C° 0 mm 2 m/s 754 mmHg 66%
    08:00 +23°C° 0 mm 2 m/s 754 mmHg 58%
    09:00 +25°C° 0 mm 2 m/s 754 mmHg 51%
    10:00 +27°C° 0 mm 2 m/s 754 mmHg 46%
    11:00 +29°C° 0 mm 2 m/s 754 mmHg 41%
    12:00 +30°C° 0 mm 2 m/s 754 mmHg 35%
    13:00 +31°C° 0 mm 1 m/s 753 mmHg 32%
    14:00 +32°C° 0 mm 1 m/s 753 mmHg 30%
    15:00 +32°C° 0 mm 1 m/s 753 mmHg 27%
    16:00 +31°C° 0 mm 1 m/s 752 mmHg 29%
    17:00 +30°C° 0 mm 1 m/s 752 mmHg 31%
    18:00 +29°C° 0 mm 1 m/s 752 mmHg 34%
    19:00 +28°C° 0 mm 1 m/s 752 mmHg 38%
    20:00 +26°C° 0 mm 2 m/s 752 mmHg 41%
    21:00 +25°C° 0 mm 2 m/s 753 mmHg 45%
    22:00 +24°C° 0 mm 2 m/s 753 mmHg 48%
    23:00 +24°C° 0 mm 1 m/s 752 mmHg 50%

    25 August, Duminică

    Timp Temperatura Precipitaţii Vânt Presiune Umiditate
    00:00 +23°C° 0 mm 1 m/s 752 mmHg 53%
    01:00 +23°C° 0 mm 1 m/s 752 mmHg 55%
    02:00 +22°C° 0 mm 1 m/s 752 mmHg 56%
    03:00 +22°C° 0 mm 1 m/s 752 mmHg 58%
    04:00 +22°C° 0 mm 1 m/s 752 mmHg 59%
    05:00 +22°C° 0 mm 1 m/s 752 mmHg 60%
    06:00 +22°C° 0 mm 1 m/s 752 mmHg 61%
    07:00 +24°C° 0 mm 1 m/s 752 mmHg 55%
    08:00 +26°C° 0 mm 1 m/s 753 mmHg 49%
    09:00 +28°C° 0 mm 1 m/s 753 mmHg 43%
    10:00 +30°C° 0 mm 1 m/s 753 mmHg 38%
    11:00 +32°C° 0 mm 1 m/s 753 mmHg 32%
    12:00 +33°C° 0 mm 1 m/s 753 mmHg 27%
    13:00 +34°C° 0 mm 1 m/s 752 mmHg 26%
    14:00 +34°C° 0 mm 1 m/s 752 mmHg 24%
    15:00 +35°C° 0 mm 1 m/s 752 mmHg 22%
    16:00 +34°C° 0 mm 1 m/s 752 mmHg 25%
    17:00 +33°C° 0 mm 1 m/s 752 mmHg 27%
    18:00 +31°C° 0 mm 1 m/s 752 mmHg 30%
    19:00 +30°C° 0 mm 1 m/s 752 mmHg 34%
    20:00 +29°C° 0 mm 1 m/s 753 mmHg 38%
    21:00 +27°C° 0 mm 2 m/s 753 mmHg 42%
    22:00 +26°C° 0 mm 2 m/s 753 mmHg 46%
    23:00 +25°C° 0 mm 2 m/s 753 mmHg 49%

    26 August, Luni

    Timp Temperatura Precipitaţii Vânt Presiune Umiditate
    00:00 +24°C° 0 mm 2 m/s 754 mmHg 53%
    01:00 +23°C° 0 mm 2 m/s 754 mmHg 55%
    02:00 +23°C° 0 mm 2 m/s 753 mmHg 57%
    03:00 +21°C° 0 mm 2 m/s 753 mmHg 59%
    04:00 +21°C° 0 mm 2 m/s 754 mmHg 61%
    05:00 +20°C° 0 mm 2 m/s 754 mmHg 63%
    06:00 +20°C° 0 mm 2 m/s 755 mmHg 65%
    07:00 +21°C° 0 mm 2 m/s 755 mmHg 60%
    08:00 +24°C° 0 mm 2 m/s 755 mmHg 54%
    09:00 +26°C° 0 mm 2 m/s 755 mmHg 48%
    10:00 +27°C° 0 mm 2 m/s 755 mmHg 44%
    11:00 +29°C° 0 mm 2 m/s 755 mmHg 40%
    12:00 +30°C° 0 mm 2 m/s 755 mmHg 36%
    13:00 +31°C° 0 mm 2 m/s 755 mmHg 34%
    14:00 +31°C° 0 mm 2 m/s 755 mmHg 33%
    15:00 +31°C° 0 mm 2 m/s 755 mmHg 32%
    16:00 +30°C° 0 mm 2 m/s 755 mmHg 35%
    17:00 +29°C° 0 mm 2 m/s 755 mmHg 39%
    18:00 +28°C° 0 mm 2 m/s 755 mmHg 42%
    19:00 +27°C° 0 mm 3 m/s 756 mmHg 46%
    20:00 +25°C° 0 mm 3 m/s 756 mmHg 50%
    21:00 +22°C° 0 mm 3 m/s 756 mmHg 55%
    22:00 +22°C° 0 mm 3 m/s 756 mmHg 57%
    23:00 +21°C° 0 mm 2 m/s 756 mmHg 60%
    Arată mai mult